TimeGMT,TemperatureF,Dew PointF,Humidity,Sea Level PressureIn,VisibilityMPH,Wind Direction,Wind SpeedMPH,Gust SpeedMPH,PrecipitationIn,Events,Conditions,WindDirDegrees,DateUTC
12:20 AM,35.6,33.8,93,29.33,-9999.0,ENE,4.6,-,N/A,,Clear,70,2012-12-17 00:20:00
12:50 AM,35.6,33.8,93,29.33,6.2,ENE,6.9,-,N/A,,Partly Cloudy,70,2012-12-17 00:50:00
1:20 AM,39.2,37.4,93,29.33,6.2,Variable,3.5,-,N/A,,Partly Cloudy,0,2012-12-17 01:20:00
1:50 AM,35.6,33.8,93,29.33,-9999.0,Variable,3.5,-,N/A,,Clear,0,2012-12-17 01:50:00
2:20 AM,37.4,35.6,93,29.33,6.2,ENE,9.2,-,N/A,,Mostly Cloudy,70,2012-12-17 02:20:00
2:50 AM,37.4,37.4,100,29.33,5.6,ENE,8.1,-,N/A,,Scattered Clouds,60,2012-12-17 02:50:00
3:20 AM,39.2,37.4,93,29.33,6.2,ENE,8.1,-,N/A,,Mostly Cloudy,70,2012-12-17 03:20:00
3:50 AM,39.2,37.4,93,29.33,6.2,ENE,5.8,-,N/A,,Overcast,60,2012-12-17 03:50:00
4:20 AM,39.2,37.4,93,29.33,6.2,NE,6.9,-,N/A,,Scattered Clouds,50,2012-12-17 04:20:00
4:50 AM,39.2,37.4,93,29.33,5.0,NE,5.8,-,N/A,,Light Drizzle,50,2012-12-17 04:50:00
5:20 AM,39.2,37.4,93,29.33,5.0,ENE,4.6,-,N/A,Rain,Light Rain,60,2012-12-17 05:20:00
5:50 AM,39.2,37.4,93,29.33,5.0,NE,4.6,-,N/A,Rain,Light Rain,50,2012-12-17 05:50:00
6:20 AM,39.2,37.4,93,29.33,4.3,NE,4.6,-,N/A,Rain,Light Rain,40,2012-12-17 06:20:00
6:50 AM,39.2,37.4,93,29.36,-9999.0,NE,4.6,-,N/A,Rain,Light Rain,40,2012-12-17 06:50:00
7:20 AM,39.2,37.4,93,29.36,2.5,NE,3.5,-,N/A,Rain,Light Rain,50,2012-12-17 07:20:00
7:50 AM,39.2,37.4,93,29.36,3.1,NE,2.3,-,N/A,Rain,Light Rain,50,2012-12-17 07:50:00
8:20 AM,39.2,37.4,93,29.36,3.1,NE,3.5,-,N/A,,Mostly Cloudy,40,2012-12-17 08:20:00
8:50 AM,37.4,37.4,100,29.36,3.1,ENE,4.6,-,N/A,,Mostly Cloudy,70,2012-12-17 08:50:00
9:20 AM,39.2,37.4,93,29.39,3.1,ENE,5.8,-,N/A,,Mostly Cloudy,70,2012-12-17 09:20:00
9:50 AM,37.4,37.4,100,29.39,3.1,Calm,Calm,-,N/A,,Mostly Cloudy,0,2012-12-17 09:50:00
10:20 AM,39.2,39.2,100,29.39,3.1,NE,3.5,-,N/A,,Mostly Cloudy,40,2012-12-17 10:20:00
10:50 AM,39.2,39.2,100,29.42,3.7,East,4.6,-,N/A,,Mostly Cloudy,100,2012-12-17 10:50:00
11:20 AM,41.0,39.2,93,29.42,3.7,Variable,2.3,-,N/A,,Mostly Cloudy,0,2012-12-17 11:20:00
11:50 AM,41.0,39.2,93,29.42,3.7,Calm,Calm,-,N/A,,Mostly Cloudy,0,2012-12-17 11:50:00
12:20 PM,41.0,39.2,93,29.42,3.7,Variable,3.5,-,N/A,,Overcast,0,2012-12-17 12:20:00
12:50 PM,41.0,39.2,93,29.44,3.7,Variable,2.3,-,N/A,,Overcast,0,2012-12-17 12:50:00
1:20 PM,41.0,39.2,93,29.44,3.7,Calm,Calm,-,N/A,,Overcast,0,2012-12-17 13:20:00
1:50 PM,42.8,41.0,93,29.44,5.0,Calm,Calm,-,N/A,,Scattered Clouds,0,2012-12-17 13:50:00
2:20 PM,42.8,39.2,87,29.44,5.0,NW,2.3,-,N/A,,Scattered Clouds,310,2012-12-17 14:20:00
2:50 PM,42.8,41.0,93,29.47,5.0,Calm,Calm,-,N/A,,Mostly Cloudy,0,2012-12-17 14:50:00
3:20 PM,42.8,41.0,93,29.47,4.3,WNW,2.3,-,N/A,,Mostly Cloudy,290,2012-12-17 15:20:00
3:50 PM,41.0,41.0,100,29.50,4.3,Calm,Calm,-,N/A,,Mostly Cloudy,0,2012-12-17 15:50:00
4:20 PM,41.0,39.2,93,29.50,4.3,Calm,Calm,-,N/A,,Mostly Cloudy,0,2012-12-17 16:20:00
4:50 PM,41.0,39.2,93,29.53,4.3,NW,2.3,-,N/A,,Mostly Cloudy,310,2012-12-17 16:50:00
5:20 PM,41.0,41.0,100,29.53,4.3,Calm,Calm,-,N/A,,Mostly Cloudy,0,2012-12-17 17:20:00
5:50 PM,41.0,41.0,100,29.53,5.0,Calm,Calm,-,N/A,,Mostly Cloudy,0,2012-12-17 17:50:00
6:20 PM,42.8,41.0,93,29.56,4.3,North,4.6,-,N/A,,Mostly Cloudy,350,2012-12-17 18:20:00
6:50 PM,42.8,41.0,93,29.56,5.0,NNW,4.6,-,N/A,,Mostly Cloudy,340,2012-12-17 18:50:00
7:20 PM,42.8,41.0,93,29.59,5.0,NNW,4.6,-,N/A,,Mostly Cloudy,340,2012-12-17 19:20:00
7:50 PM,42.8,41.0,93,29.62,3.7,Variable,2.3,-,N/A,Rain,Light Rain,0,2012-12-17 19:50:00
8:20 PM,41.0,41.0,100,29.62,4.3,Variable,2.3,-,N/A,Rain,Light Rain,0,2012-12-17 20:20:00
8:50 PM,41.0,41.0,100,29.65,3.7,West,2.3,-,N/A,,Overcast,270,2012-12-17 20:50:00
9:20 PM,41.0,41.0,100,29.65,3.7,West,2.3,-,N/A,,Mostly Cloudy,270,2012-12-17 21:20:00
9:50 PM,41.0,41.0,100,29.68,4.3,Calm,Calm,-,N/A,,Overcast,0,2012-12-17 21:50:00